GW6589 Weather Reports


time (UTC)temp
F
wind
direction
speed
knots
gust
knots
rain 1hr
in
rain 24hr
in
rain mn
in
humidity
%
barometer
mb
20260906104340 69 319 0.9 1.7 0.00 0.00 0.04 99 1014.2
20260906103839 69 101 0.9 2.6 0.00 0.00 0.04 99 1014.2
20260906103339 69 27 1.7 3.5 0.00 0.00 0.04 99 1014.2
20260906102839 69 223 0.0 2.6 0.00 0.00 0.04 99 1014.2
20260906102339 69 97 0.9 2.6 0.00 0.00 0.04 99 1014.6
20260906101839 69 107 1.7 2.6 0.00 0.00 0.04 99 1014.6
20260906101339 69 32 2.6 2.6 0.00 0.00 0.04 99 1014.6
20260906100839 69 97 1.7 2.6 0.00 0.00 0.04 99 1014.2
20260906100339 69 15 1.7 2.6 0.00 0.00 0.04 99 1014.2
20260906095840 70 110 1.7 3.5 0.00 0.00 0.04 99 1014.6
20260906095340 69 342 0.0 2.6 0.00 0.00 0.04 99 1014.6
20260906094839 69 154 0.0 2.6 0.00 0.00 0.04 99 1014.6
20260906094340 69 85 0.0 2.6 0.00 0.00 0.04 99 1013.9
20260906093839 69 140 1.7 2.6 0.00 0.00 0.04 99 1013.9
20260906093339 69 74 1.7 3.5 0.00 0.00 0.04 99 1013.9
20260906092840 70 24 2.6 2.6 0.00 0.00 0.04 99 1013.9
20260906092339 70 241 1.7 2.6 0.00 0.00 0.04 99 1014.2
20260906091839 70 309 0.0 2.6 0.00 0.00 0.04 99 1014.2
20260906091339 70 113 0.9 2.6 0.00 0.00 0.04 99 1013.9
20260906090840 70 268 0.0 2.6 0.00 0.00 0.04 99 1013.9
20260906090339 70 300 0.0 1.7 0.00 0.00 0.04 99 1013.9
20260906085839 70 80 2.6 3.5 0.00 0.00 0.04 99 1014.2
20260906085339 70 297 1.7 1.7 0.00 0.00 0.04 99 1014.2
20260906084839 70 69 0.0 2.6 0.00 0.00 0.04 99 1013.9
20260906084339 70 315 1.7 2.6 0.00 0.00 0.04 99 1013.9
20260906083839 70 117 0.9 2.6 0.00 0.00 0.04 99 1014.2
20260906083340 69 28 0.0 2.6 0.02 0.00 0.04 99 1014.2
20260906082839 69 77 1.7 2.6 0.02 0.00 0.04 99 1014.2
20260906082340 69 96 0.9 2.6 0.00 0.00 0.04 99 1013.9
20260906081840 69 67 1.7 2.6 0.00 0.00 0.04 99 1013.9
20260906081339 69 75 1.7 3.5 0.00 0.00 0.04 99 1014.2
20260906080840 69 131 0.9 3.5 0.00 0.00 0.04 99 1014.2
20260906080339 69 211 2.6 2.6 0.00 0.00 0.04 99 1014.2
20260906075839 70 25 1.7 2.6 0.00 0.00 0.04 99 1013.9
20260906075339 70 330 0.0 2.6 0.00 0.00 0.04 99 1014.2
20260906074839 70 62 1.7 4.3 0.00 0.00 0.04 99 1014.2
20260906074340 70 143 0.0 2.6 0.00 0.00 0.04 99 1014.2
20260906073839 70 95 0.9 2.6 0.00 0.00 0.04 99 1014.2
20260906073340 70 192 2.6 3.5 0.00 0.00 0.04 99 1014.2
20260906072840 70 62 2.6 3.5 0.02 0.00 0.04 99 1014.2
20260906072340 70 56 1.7 2.6 0.02 0.00 0.04 99 1013.9
20260906071842 70 44 0.9 2.6 0.02 0.00 0.04 99 1013.9
20260906071342 70 360 1.7 4.3 0.00 0.00 0.04 99 1013.9
20260906070845 70 188 0.9 3.5 0.00 0.00 0.04 99 1014.2
20260906070341 70 175 0.9 3.5 0.00 0.00 0.04 99 1014.6
20260906065844 70 100 0.9 2.6 0.00 0.00 0.04 99 1014.6
20260906065340 70 328 2.6 3.5 0.00 0.00 0.04 99 1014.6
20260906064840 70 18 4.3 5.2 0.02 0.00 0.04 99 1014.6
20260906064339 70 155 0.0 2.6 0.05 0.00 0.04 99 1014.2
20260906063839 70 36 1.7 5.2 0.02 0.00 0.03 99 1013.9
20260906063340 70 89 1.7 4.3 0.00 0.00 0.03 98 1013.9
20260906062840 70 251 2.6 3.5 0.02 0.00 0.03 98 1014.2
20260906062339 70 273 1.7 4.3 0.05 0.00 0.03 98 1014.6
20260906061839 70 127 0.0 4.3 0.07 0.00 0.02 99 1014.6
20260906061339 70 341 2.6 5.2 0.07 0.00 0.02 98 1014.6
20260906060840 70 69 1.7 3.5 0.05 0.00 0.01 98 1014.9
20260906060340 70 44 2.6 3.5 0.05 0.00 0.01 98 1014.6
20260906055839 70 142 0.0 3.5 0.02 0.00 0.00 98 1014.6
20260906055340 70 178 1.7 5.2 0.00 0.00 0.00 98 1014.6
20260906054839 70 53 2.6 5.2 0.00 0.00 0.00 98 1014.6
20260906054339 70 258 0.0 3.5 0.00 0.00 0.00 98 1014.2
20260906053839 70 61 0.9 4.3 0.00 0.00 0.00 99 1014.6
20260906053340 70 32 2.6 4.3 0.00 0.00 0.00 98 1014.6
20260906052839 70 225 0.9 3.5 0.00 0.00 0.00 98 1014.6
20260906052340 70 213 1.7 2.6 0.00 0.00 0.00 98 1014.6
20260906051840 70 89 0.0 0.9 0.00 0.00 0.00 98 1014.6
20260906051340 70 205 0.0 0.0 0.00 0.00 0.00 98 1014.6
20260906050840 70 55 0.0 0.9 0.00 0.00 0.00 98 1014.9
20260906050339 70 224 0.0 0.9 0.00 0.00 0.00 98 1014.6
20260906045840 70 135 0.0 0.9 0.00 0.00 0.28 98 1014.9
20260906045339 70 26 0.9 0.9 0.00 0.00 0.28 98 1014.6
20260906044839 70 92 0.9 0.9 0.00 0.00 0.28 98 1014.2
20260906044339 70 255 0.0 0.9 0.00 0.00 0.28 98 1014.6
20260906043839 70 116 0.0 0.0 0.00 0.00 0.28 98 1014.6
20260906043339 70 100 0.0 0.9 0.00 0.00 0.28 98 1014.6
20260906042839 70 217 0.0 1.7 0.00 0.00 0.28 98 1014.6
20260906042340 70 315 0.0 0.9 0.00 0.00 0.28 98 1014.6
20260906041840 70 89 0.0 0.9 0.00 0.00 0.28 98 1014.2
20260906041339 70 235 0.0 0.9 0.00 0.00 0.28 98 1014.6
20260906040840 70 315 0.0 0.0 0.00 0.00 0.28 97 1014.6
20260906040340 70 93 0.0 0.9 0.00 0.00 0.28 97 1014.6
20260906035839 70 309 0.0 0.9 0.00 0.00 0.28 97 1014.6
20260906035339 70 135 0.0 0.0 0.00 0.00 0.28 97 1014.6
20260906034839 70 55 0.0 0.0 0.00 0.00 0.28 97 1014.6
20260906034339 70 89 0.0 0.0 0.00 0.00 0.28 97 1014.6
20260906033839 70 130 0.0 0.0 0.00 0.00 0.28 97 1014.6
20260906033339 70 32 0.0 0.0 0.00 0.00 0.28 97 1014.6
20260906032839 70 205 0.0 0.9 0.00 0.00 0.28 97 1014.6
20260906032341 70 82 0.0 1.7 0.00 0.00 0.28 97 1014.6
20260906031840 70 85 0.9 0.9 0.00 0.00 0.28 97 1014.6
20260906031339 70 235 0.0 0.9 0.00 0.00 0.28 97 1014.6
20260906030843 70 142 0.0 0.0 0.00 0.00 0.28 97 1014.9
20260906030340 70 55 0.0 0.9 0.00 0.00 0.28 97 1014.2
20260906025839 70 216 0.0 0.0 0.00 0.00 0.28 97 1014.6
20260906025339 70 135 0.0 0.0 0.00 0.00 0.28 97 1014.6
20260906024840 70 174 0.0 0.0 0.00 0.00 0.28 97 1014.9
20260906024339 71 242 0.0 0.0 0.00 0.00 0.28 97 1014.6
20260906023841 71 217 0.0 0.0 0.00 0.00 0.28 97 1014.9
20260906023339 71 62 0.0 0.0 0.00 0.00 0.28 97 1014.6
20260906022839 71 135 0.0 0.9 0.00 0.00 0.28 97 1014.9
20260906022339 71 269 0.0 0.0 0.00 0.00 0.28 97 1014.9
20260906021839 71 154 0.0 0.0 0.00 0.00 0.28 96 1015.2
20260906021339 71 46 0.0 0.0 0.00 0.00 0.28 96 1014.6
20260906020839 71 117 0.0 0.0 0.00 0.00 0.28 96 1014.6
20260906020339 71 224 0.0 0.0 0.00 0.00 0.28 96 1014.6
20260906015840 71 224 0.0 0.0 0.00 0.00 0.28 96 1014.6
20260906015339 71 50 0.0 0.0 0.00 0.00 0.28 96 1014.6
20260906014839 71 62 0.9 0.9 0.00 0.00 0.28 96 1014.2
20260906014340 71 211 0.0 0.9 0.00 0.00 0.28 96 1014.6
20260906013839 71 135 0.0 0.0 0.00 0.00 0.28 96 1014.6
20260906013339 72 54 0.0 0.9 0.00 0.00 0.28 96 1014.2
20260906012839 72 195 0.0 0.0 0.00 0.00 0.28 96 1014.2
20260906012339 72 157 0.0 0.0 0.00 0.00 0.28 96 1014.6
20260906011840 72 325 0.0 0.0 0.00 0.00 0.28 95 1014.2
20260906011339 72 300 0.0 0.0 0.00 0.00 0.28 95 1014.2
20260906010840 72 195 0.0 0.0 0.00 0.00 0.28 95 1014.2
20260906010339 73 269 0.0 0.0 0.00 0.00 0.28 95 1014.2
20260906005840 73 44 0.0 0.9 0.00 0.00 0.28 95 1014.2
20260906005340 73 226 0.0 0.0 0.00 0.00 0.28 95 1013.9
20260906004839 73 128 0.0 0.0 0.00 0.00 0.28 95 1013.9
20260906004339 73 129 0.0 0.9 0.00 0.00 0.28 95 1013.9
20260906003839 73 54 0.9 0.9 0.00 0.00 0.28 95 1013.9
20260906000841 74 38 0.0 0.9 0.00 0.00 0.28 94 1013.9
20260906000341 74 51 0.9 0.9 0.00 0.00 0.28 94 1013.9
20260905235839 74 269 0.0 0.0 0.00 0.00 0.28 94 1013.9
20260905235340 74 304 0.0 0.9 0.00 0.00 0.28 94 1013.9
20260905234839 75 224 0.0 0.0 0.00 0.00 0.28 93 1014.2
20260905234339 75 89 0.0 0.0 0.00 0.00 0.28 93 1013.9
20260905233839 75 269 0.0 0.9 0.00 0.00 0.28 93 1014.2
20260905233339 75 66 0.0 0.0 0.00 0.00 0.28 93 1013.9
20260905232839 75 81 0.0 0.0 0.00 0.00 0.28 94 1013.9
20260905232339 75 124 0.0 0.0 0.00 0.00 0.28 94 1013.9
20260905231839 75 304 0.0 0.0 0.00 0.00 0.28 93 1013.9
20260905231340 76 297 0.0 0.9 0.00 0.00 0.28 92 1013.9
20260905230839 76 113 0.0 0.9 0.00 0.00 0.28 90 1013.9
20260905230339 76 315 0.0 0.0 0.00 0.00 0.28 90 1013.9
20260905225840 76 269 0.0 1.7 0.00 0.00 0.28 90 1013.9
20260905225339 76 240 0.9 0.9 0.00 0.00 0.28 90 1013.9
20260905224839 76 269 0.0 0.0 0.00 0.00 0.28 89 1013.9
20260905224339 77 269 0.0 0.0 0.00 0.00 0.28 89 1013.5
20260905223839 77 224 0.0 0.0 0.00 0.00 0.28 88 1013.9
20260905223339 77 135 0.0 0.9 0.00 0.00 0.28 89 1013.9
20260905222839 77 217 0.9 0.9 0.00 0.00 0.28 89 1013.5
20260905222340 77 254 2.6 2.6 0.00 0.00 0.28 90 1013.9
20260905221839 78 262 1.7 2.6 0.00 0.00 0.28 89 1013.5
20260905221340 78 264 1.7 2.6 0.00 0.00 0.28 88 1013.9
20260905220840 78 263 1.7 3.5 0.00 0.00 0.28 86 1013.9
20260905220339 79 238 2.6 3.5 0.00 0.00 0.28 86 1013.9
20260905215839 79 248 2.6 3.5 0.00 0.00 0.28 85 1013.5
20260905215339 79 248 3.5 4.3 0.00 0.00 0.28 86 1013.9
20260905214839 79 266 1.7 3.5 0.00 0.00 0.28 86 1013.9
20260905214340 79 265 1.7 3.5 0.00 0.00 0.28 85 1013.5
20260905213839 79 245 2.6 4.3 0.00 0.00 0.28 84 1013.5
20260905213340 80 262 2.6 3.5 0.00 0.00 0.28 84 1013.5
20260905212839 80 253 3.5 4.3 0.00 0.00 0.28 86 1013.5
20260905212343 80 276 2.6 3.5 0.00 0.00 0.28 84 1013.5
20260905211839 80 277 2.6 2.6 0.00 0.00 0.28 85 1013.5
20260905211339 80 253 3.5 4.3 0.00 0.00 0.28 84 1013.5
20260905210839 80 255 3.5 4.3 0.00 0.00 0.28 84 1013.2
20260905210339 81 252 2.6 4.3 0.00 0.00 0.28 83 1012.9
20260905205839 81 255 2.6 4.3 0.00 0.00 0.28 84 1013.2
20260905205340 81 265 2.6 4.3 0.00 0.00 0.28 85 1013.2
20260905204839 82 281 2.6 5.2 0.00 0.00 0.28 82 1012.9
20260905204339 82 244 3.5 4.3 0.00 0.00 0.28 81 1012.9
20260905203839 82 256 3.5 5.2 0.00 0.00 0.28 80 1012.9
20260905203339 82 260 1.7 2.6 0.00 0.00 0.28 80 1012.9
20260905202839 82 258 1.7 2.6 0.00 0.00 0.28 80 1012.9
20260905202339 82 253 4.3 4.3 0.00 0.00 0.28 79 1012.9
20260905201839 83 252 2.6 4.3 0.00 0.00 0.28 79 1013.2
20260905201339 83 243 4.3 4.3 0.00 0.00 0.28 80 1013.2
20260905200840 83 257 3.5 4.3 0.00 0.00 0.28 79 1013.2
20260905200340 84 261 2.6 4.3 0.00 0.00 0.28 76 1013.2
20260905195839 84 243 4.3 5.2 0.00 0.00 0.28 77 1013.2
20260905195339 84 240 4.3 4.3 0.00 0.00 0.28 76 1013.2
20260905194839 84 240 5.2 6.1 0.00 0.00 0.28 76 1013.2
20260905194340 85 253 3.5 4.3 0.00 0.00 0.28 71 1013.5
20260905193840 87 245 3.5 5.2 0.00 0.00 0.28 69 1013.2
20260905193339 87 253 2.6 3.5 0.00 0.00 0.28 70 1013.5
20260905192839 85 163 0.9 5.2 0.00 0.00 0.28 72 1013.5
20260905192341 86 250 4.3 4.3 0.00 0.00 0.28 70 1013.5
20260905191840 87 242 2.6 3.5 0.00 0.00 0.28 67 1013.9
20260905191339 87 259 2.6 4.3 0.00 0.00 0.28 67 1013.9
20260905190840 86 263 1.7 3.5 0.00 0.00 0.28 68 1014.2
20260905190340 85 265 2.6 3.5 0.00 0.00 0.28 66 1013.9
20260905185839 85 267 3.5 4.3 0.00 0.00 0.28 69 1014.2
20260905185339 86 248 2.6 3.5 0.00 0.00 0.28 71 1014.2
20260905184839 84 259 2.6 2.6 0.00 0.00 0.28 76 1014.6
20260905184339 83 154 0.0 2.6 0.00 0.00 0.28 76 1014.6
20260905183839 82 322 0.0 1.7 0.00 0.00 0.28 78 1014.9
20260905183340 82 180 0.0 0.9 0.00 0.00 0.28 82 1014.9
20260905182840 82 212 0.0 0.9 0.00 0.00 0.28 81 1014.6
20260905182339 82 269 0.0 2.6 0.00 0.00 0.28 80 1014.9
20260905181839 80 251 1.7 2.6 0.00 0.00 0.28 84 1015.2
20260905181339 80 131 0.9 1.7 0.00 0.00 0.28 84 1015.2
20260905180839 81 186 0.0 1.7 0.00 0.00 0.28 81 1015.2
20260905180339 82 183 0.0 2.6 0.00 0.00 0.28 77 1015.2
20260905175840 81 293 0.9 2.6 0.00 0.00 0.28 77 1015.2
20260905175340 81 257 1.7 2.6 0.00 0.00 0.28 81 1015.2
20260905174839 80 293 1.7 2.6 0.00 0.00 0.28 82 1015.6
20260905174339 79 240 0.0 1.7 0.00 0.00 0.28 83 1015.2
20260905173840 77 199 0.9 1.7 0.00 0.00 0.28 92 1015.6
20260905173339 77 117 1.7 2.6 0.00 0.00 0.28 91 1015.6
20260905172839 76 129 1.7 3.5 0.00 0.00 0.28 90 1015.6
20260905172340 76 101 3.5 3.5 0.00 0.00 0.28 92 1015.6
20260905171839 75 62 0.0 2.6 0.00 0.00 0.28 93 1015.6
20260905171339 75 114 1.7 4.3 0.00 0.00 0.28 96 1015.6
20260905170840 74 134 1.7 2.6 0.00 0.00 0.28 97 1015.9
20260905170340 74 114 1.7 3.5 0.00 0.00 0.28 97 1015.9
20260905165839 75 81 0.0 2.6 0.00 0.00 0.28 98 1016.3
20260905165339 75 164 0.0 1.7 0.00 0.00 0.28 98 1015.9
20260905164839 74 202 0.9 1.7 0.00 0.00 0.28 98 1016.3
20260905164339 74 317 1.7 1.7 0.00 0.00 0.28 98 1016.3
20260905163839 74 279 0.0 2.6 0.00 0.00 0.28 98 1016.3
20260905163340 74 262 0.9 3.5 0.00 0.00 0.28 98 1016.6
20260905162840 73 267 2.6 2.6 0.00 0.00 0.28 98 1016.6
20260905162339 73 325 0.0 1.7 0.00 0.00 0.28 99 1016.9
20260905161839 73 304 0.0 2.6 0.00 0.00 0.28 99 1017.3
20260905161339 73 251 1.7 2.6 0.00 0.00 0.28 98 1017.6
20260905160840 73 322 0.0 1.7 0.00 0.00 0.28 98 1017.6
20260905160339 72 247 1.7 2.6 0.00 0.00 0.28 98 1017.6
20260905155840 72 273 0.0 1.7 0.00 0.00 0.28 98 1017.6
20260905155339 72 264 0.0 1.7 0.02 0.00 0.28 98 1017.9
20260905154839 72 294 0.9 2.6 0.02 0.00 0.28 98 1017.9
20260905154340 72 266 1.7 2.6 0.02 0.00 0.28 98 1017.6
20260905153839 72 230 0.0 2.6 0.02 0.00 0.28 98 1017.6
20260905153339 72 238 0.9 2.6 0.02 0.00 0.27 98 1017.9
20260905152840 72 245 1.7 3.5 0.05 0.00 0.27 98 1017.9
20260905152339 72 243 1.7 2.6 0.07 0.00 0.27 98 1018.3
20260905151839 72 255 1.7 3.5 0.05 0.00 0.26 98 1018.3
20260905151339 72 252 1.7 2.6 0.05 0.00 0.26 98 1018.6
20260905150842 72 269 0.0 1.7 0.07 0.00 0.26 98 1017.9
20260905150340 73 105 1.7 2.6 0.02 0.00 0.25 98 1018.3
20260905145840 73 142 1.7 2.6 0.00 0.00 0.24 98 1018.3
20260905145339 73 274 0.0 1.7 0.02 0.00 0.24 98 1017.9
20260905144840 73 269 0.9 2.6 0.02 0.00 0.24 98 1018.3
20260905144341 73 304 0.0 1.7 0.00 0.00 0.24 98 1018.3
20260905143839 73 260 1.7 2.6 0.02 0.00 0.24 97 1018.6
20260905143340 73 136 0.0 2.6 0.12 0.00 0.24 97 1018.3
20260905142839 73 7 0.9 3.5 0.45 0.00 0.24 97 1018.3
20260905142339 74 52 1.7 4.3 1.09 0.00 0.21 97 1017.9
20260905141840 75 107 3.5 7.8 0.90 0.00 0.15 94 1017.9
20260905141339 76 274 0.9 3.5 0.19 0.00 0.03 93 1016.9
20260905140839 76 46 0.9 2.6 0.00 0.00 0.00 95 1016.3
20260905140339 75 156 0.9 2.6 0.00 0.00 0.00 97 1015.9
20260905135839 75 80 0.9 2.6 0.00 0.00 0.00 98 1015.6
20260905135340 74 242 0.0 1.7 0.00 0.00 0.00 99 1015.6
20260905134839 74 116 0.9 2.6 0.00 0.00 0.00 99 1015.9
20260905134340 73 87 0.0 1.7 0.00 0.00 0.00 99 1015.9
20260905133839 73 109 0.0 0.9 0.00 0.00 0.00 98 1016.3
20260905133340 73 342 0.0 1.7 0.00 0.00 0.00 99 1016.3
20260905132840 72 240 0.0 1.7 0.00 0.00 0.00 98 1016.6
20260905132339 72 195 0.0 0.9 0.00 0.00 0.00 98 1016.3
20260905131840 72 62 1.7 1.7 0.00 0.00 0.00 98 1016.3
20260905131339 71 178 0.9 1.7 0.00 0.00 0.00 98 1016.3
20260905130841 71 263 0.0 1.7 0.00 0.00 0.00 98 1016.3
20260905130339 71 340 0.0 1.7 0.00 0.00 0.00 98 1016.3
20260905125839 70 233 0.0 1.7 0.00 0.00 0.00 98 1016.6
20260905125340 69 79 0.0 2.6 0.00 0.00 0.00 99 1016.9
20260905124839 69 60 0.9 2.6 0.00 0.00 0.00 98 1016.6
20260905124339 69 132 0.0 1.7 0.00 0.00 0.00 98 1016.6
20260905123839 69 357 0.0 1.7 0.00 0.00 0.00 99 1016.6
20260905123339 68 89 0.0 1.7 0.00 0.00 0.00 98 1016.3
20260905122840 68 293 0.0 2.6 0.00 0.00 0.00 98 1016.6
20260905122340 68 267 1.7 2.6 0.00 0.00 0.00 99 1016.6
20260905121839 68 340 0.0 1.7 0.00 0.00 0.00 98 1016.6
20260905121343 68 251 0.9 2.6 0.00 0.00 0.00 98 1016.3
20260905120840 68 360 0.0 1.7 0.00 0.00 0.00 98 1016.6
20260905120340 68 257 0.0 1.7 0.00 0.00 0.00 98 1016.6
20260905115839 67 227 1.7 1.7 0.00 0.00 0.00 99 1016.6
20260905115340 67 63 0.9 2.6 0.00 0.00 0.00 98 1016.3
20260905114839 67 122 0.0 1.7 0.00 0.00 0.00 98 1016.3
20260905114340 67 122 0.0 2.6 0.00 0.00 0.00 98 1016.3
20260905113840 67 258 0.9 1.7 0.00 0.00 0.00 98 1016.3
20260905113339 67 24 0.0 2.6 0.00 0.00 0.00 98 1016.3
20260905112902 67 257 0.9 2.6 0.00 0.00 0.00 98 1016.3
20260905112340 67 119 1.7 1.7 0.00 0.00 0.00 98 1015.9
20260905111840 67 181 0.0 1.7 0.00 0.00 0.00 98 1015.9
20260905111339 67 37 0.0 2.6 0.00 0.00 0.00 98 1015.6
20260905110839 67 59 0.9 2.6 0.00 0.00 0.00 98 1015.9
20260905110340 67 57 1.7 1.7 0.00 0.00 0.00 98 1015.6
20260905105839 67 143 1.7 2.6 0.00 0.00 0.00 98 1015.6
20260905105340 67 300 0.9 2.6 0.00 0.00 0.00 98 1015.2
20260905104839 67 285 0.9 2.6 0.00 0.00 0.00 98 1015.2